Location: Unspecified
(0.0000°N, 0.0000°E)
Time: 03:35:09
(UTC+00:00)

BlueWalker 3 - Pass Details

Date: 26 July 2024
Orbit: 461 x 469 km, 53.2° (Epoch: 17 July)

Event Time Altitude Azimuth Distance (km) Brightness Sun altitude
Exits shadow 05:12:01 21° 246° (WSW) 1,131 3.1 -12.9°
Maximum altitude 05:14:03 40° 304° (WNW) 727 2.4 -12.4°
Drops below altitude 10° 05:17:35 10° 14° (NNE) 1,654 5.0 -11.6°
Sets 05:19:50 0° 22° (NNE) 2,531 6.2 -11.0°
